Regional Weather Roundup
Issued by NWS Cleveland, OH

Home | Current Version | Previous Version | Graphics & Text | Print | Product List | Glossary On
Versions: 1 2 3 4 5 6 7 8 9 10 11 12 13 14 15 16 17 18 19 20 21 22 23 24 25 26 27 28 29 30 31 32 33 34 35 36 37 38 39 40 41 42 43 44 45 46 47 48 49 50
000
ASUS41 KCLE 292100
RWRCLE
OHIO REGIONAL WEATHER ROUNDUP
NATIONAL WEATHER SERVICE WILMINGTON, OH
500 PM EDT WED JUL 29 2015

NOTE: "FAIR" INDICATES FEW OR NO CLOUDS BELOW 12,000 FEET WITH NO
SIGNIFICANT WEATHER AND/OR OBSTRUCTIONS TO VISIBILITY.

OHZ001>008-015>018-024>027-034-035-043-044-292200-
   NORTHWEST OHIO

CITY           SKY/WX    TMP DP  RH WIND       PRES   REMARKS
DEFIANCE       PTSUNNY   86  75  69 S13       29.90F HX  95
FINDLAY        LGT RAIN  78  74  87 W10       29.92R
TOLEDO EXPRESS HVY RAIN  74  73  97 N6        29.93R VSB 1/2
TOLEDO EXEC    CLOUDY    81  74  79 NW13      29.92R
LIMA           LGT RAIN  75  73  93 S6        29.94S
$$

OHZ009>014-019>023-028>033-038-089-292200-
   NORTHEAST OHIO

CITY           SKY/WX    TMP DP  RH WIND       PRES   REMARKS
CLE-HOPKINS    PTSUNNY   92  65  40 SW13      29.92F HX  94
CLE-LAKEFRONT  MOSUNNY   86  74  67 NE7       29.88F HX  94
CUY CO. ARPT   MOSUNNY   93  64  38 CALM      29.91F HX  95
LORAIN-ELYRIA  PTSUNNY   89  68  49 SW12      29.91F HX  93
ASHTABULA      MOSUNNY   88  63  43 NW7       29.93F
AKRON-CANTON   PTSUNNY   90  67  46 SW12      29.93F HX  93
WOOSTER        NOT AVBL
MANSFIELD      MOSUNNY   89  69  51 SW7       29.94F HX  93
YOUNGSTOWN     PTSUNNY   86  68  54 SW5       29.93F
$$

OHZ042-051>053-060>062-070>072-077>081-292200-
  SOUTHWEST OHIO

CITY           SKY/WX    TMP DP  RH WIND       PRES   REMARKS
CINC-COVINGTON CLOUDY    77  74  90 S3        29.95F
CINC-LUNKEN    CLOUDY    78  74  87 CALM      29.95S
HAMILTON       CLOUDY    80  75  84 CALM      29.95F
DAYTON         TSTM      75  75 100 E10       29.95R VSB 3/4
WRIGHT-PAT AFB TSTM      77  72  83 SW17G24   29.93S
DAYTON GENERAL CLOUDY    75  72  90 E6        29.95S
WILMINGTON     TSTM      73  70  90 W24G33    29.97R VSB 1/2
$$

OHZ036-037-039>041-045>050-054>059-063>069-073>076-082>088-292200-
  CENTRAL AND SOUTHEAST OHIO

CITY           SKY/WX    TMP DP  RH WIND       PRES   REMARKS
COLUMBUS       PTSUNNY   88  70  55 W9        29.92F HX  93
OSU AIRPORT    PTSUNNY   90  72  55 SW6       29.92F HX  97
BOLTON FIELD   MOSUNNY   88  75  66 S6        29.94F HX  97
RICKENBACK AFB NOT AVBL
NEWARK         MOSUNNY   91  70  49 SW8       29.92F HX  96
MARION         PTSUNNY   88  71  57 SW8       29.93S HX  94
LANCASTER      MOSUNNY   90  72  55 W5        29.93F HX  97
ZANESVILLE     PTSUNNY   87  69  54 SW7       29.92F HAZE    HX  91
NEW PHILLY     SUNNY     88  71  57 W6        29.93F HX  94
$$



USA.gov is the U.S. government's official web portal to all federal, state and local government web resources and services.